Regional Weather Roundup
Issued by NWS Binghamton, NY

Home | Current Version | Previous Version | Text Only | Print | Product List | Glossary On
Versions: 1 2 3 4 5 6 7 8 9 10 11 12 13 14 15 16 17 18 19 20 21 22 23 24 25 26 27 28 29 30 31 32 33 34 35 36 37 38 39 40 41 42 43 44 45 46 47 48 49 50
000
ASUS41 KBGM 010810
RWRBGM
RWRBGM
BINGHAMTON REGIONAL WEATHER ROUNDUP
NATIONAL WEATHER SERVICE BINGHAMTON NY
300 AM EST SUN MAR 01 2015

Note: "fair" indicates few or no clouds below 12,000 feet with no
significant weather and/or obstructions to visibility.

* = Station(s) that does not report precipitation, such as rain,
snow, etc, also no thunder or fog.

!NYZ009-015>018-022>025-036-037-044>046-055>057-062-010900
...CENTRAL NEW YORK...

CITY           SKY/WX    TMP DP  RH WIND       PRES   REMARKS
BINGHAMTON     MOCLDY    11  -3  53 S7        30.51F WCI   0
CORTLAND       FAIR       3  -2  78 CALM      30.56F
DANSVILLE      CLOUDY    12   0  58 E10       30.55S WCI  -1
ELMIRA         CLOUDY     6  -1  73 CALM      30.57F
ITHACA         MOCLDY    10  -3  55 E6        30.55F WCI   0
MONTICELLO     PTCLDY     5  -2  72 CALM      30.57F
NORWICH        CLEAR     -4  -9  77 CALM      30.60F
ONEONTA        CLEAR      7  -4  61 CALM      30.51F
PENN YAN       CLOUDY     7   0  73 CALM      30.53F
ROME           MOCLDY    -2  -6  83 SE6       30.64F WCI -14
SIDNEY         CLEAR      0  -4  85 CALM      30.60F
SYRACUSE       CLOUDY    -1  -4  87 E8        30.60F WCI -16
$$

!PAZ038>040-043-044-047-048-072-010900
...NORTHEAST PENNSYLVANIA...

CITY           SKY/WX    TMP DP  RH WIND       PRES   REMARKS
HAZLETON       CLOUDY    10   1  67 MISG      30.56F
SCRANTON       MOCLDY    11  -2  56 E5        30.59F WCI   3
TOWANDA*       CLEAR      7   0  72 CALM      30.62S
$$
&&
KEY
WCI = WIND CHILL INDEX
VSB = VISIBILITY
HX  = HEAT INDEX
$$


USA.gov is the U.S. government's official web portal to all federal, state and local government web resources and services.